N7DQ Weather Reports


time (UTC)temp
C
wind
direction
speed
KPH
gust
KPH
rain 1hr
cm
rain 24hr
cm
rain mn
cm
humidity
%
barometer
mb
20260505093505 12 236 3.2 4.8 0.00 0.00 0.00 81 1014.9
20260505093005 12 195 1.6 4.8 0.00 0.00 0.00 81 1014.9
20260505092506 12 250 1.6 4.8 0.00 0.00 0.00 81 1014.8
20260505092006 12 217 0.0 4.8 0.00 0.00 0.00 81 1014.8
20260505091505 12 248 1.6 4.8 0.00 0.00 0.00 81 1014.8
20260505091005 12 230 1.6 4.8 0.00 0.00 0.00 81 1014.8
20260505090505 12 243 1.6 4.8 0.00 0.00 0.00 81 1014.8
20260505090005 12 223 1.6 4.8 0.00 0.00 0.00 81 1014.7
20260505085505 12 208 1.6 4.8 0.00 0.00 0.00 81 1014.7
20260505085005 12 240 3.2 4.8 0.00 0.00 0.00 81 1014.7
20260505084505 12 212 0.0 4.8 0.00 0.00 0.00 81 1014.7
20260505084005 12 237 1.6 8.0 0.00 0.00 0.00 81 1014.7
20260505083505 12 227 3.2 8.0 0.00 0.00 0.00 81 1014.7
20260505083005 12 219 1.6 4.8 0.00 0.00 0.00 81 1014.7
20260505082506 12 225 1.6 12.9 0.00 0.00 0.00 81 1014.6
20260505082005 12 236 0.0 12.9 0.00 0.00 0.00 81 1014.6
20260505081505 12 231 4.8 12.9 0.00 0.00 0.00 81 1014.7
20260505081006 12 247 1.6 4.8 0.00 0.00 0.00 81 1014.7
20260505080506 12 250 1.6 8.0 0.00 0.00 0.00 82 1014.7
20260505080006 12 192 3.2 8.0 0.00 0.00 0.00 82 1014.7
20260505075505 12 78 1.6 9.7 0.00 0.00 0.00 81 1014.6
20260505075005 12 202 3.2 9.7 0.00 0.00 0.00 81 1014.5
20260505074505 12 238 1.6 9.7 0.00 0.00 0.00 82 1014.5
20260505074005 12 51 3.2 12.9 0.00 0.00 0.00 82 1014.3
20260505073505 12 247 3.2 12.9 0.00 0.00 0.00 82 1014.4
20260505073005 12 223 1.6 4.8 0.00 0.00 0.00 82 1014.3
20260505072505 12 243 1.6 4.8 0.00 0.00 0.00 82 1014.3
20260505072005 12 260 1.6 4.8 0.00 0.00 0.00 82 1014.3
20260505071505 12 225 1.6 4.8 0.00 0.00 0.00 82 1014.3
20260505071005 12 246 1.6 11.3 0.00 0.00 0.00 82 1014.3
20260505070506 12 215 1.6 11.3 0.00 0.00 0.00 82 1014.2
20260505070005 12 246 3.2 11.3 0.00 0.00 0.00 82 1014.1
20260505065505 12 213 1.6 11.3 0.00 0.00 0.00 82 1014.1
20260505065005 12 251 1.6 14.5 0.00 0.00 0.00 82 1014.1
20260505064505 12 270 3.2 14.5 0.00 0.00 0.00 82 1014.1
20260505064005 12 239 3.2 9.7 0.00 0.00 0.00 82 1014.1
20260505063506 12 201 3.2 4.8 0.00 0.00 0.00 83 1014.1
20260505063005 12 238 1.6 11.3 0.00 0.00 0.00 83 1014.1
20260505062505 12 249 1.6 11.3 0.00 0.00 0.00 83 1014.1
20260505062005 12 202 3.2 11.3 0.00 0.00 0.00 83 1014.1
20260505061505 12 253 3.2 11.3 0.00 0.00 0.00 82 1014.0
20260505061006 12 243 4.8 11.3 0.00 0.00 0.00 82 1014.0
20260505060505 12 232 3.2 16.1 0.00 0.00 0.00 83 1014.0
20260505060006 12 194 4.8 16.1 0.00 0.00 0.00 83 1013.9
20260505055505 13 131 4.8 14.5 0.00 0.00 0.00 83 1013.8
20260505055005 13 250 1.6 8.0 0.00 0.00 0.00 83 1013.7
20260505054506 13 201 1.6 8.0 0.00 0.00 0.00 83 1013.7
20260505054005 13 204 3.2 9.7 0.00 0.00 0.00 83 1013.6
20260505053506 13 262 3.2 14.5 0.00 0.00 0.00 83 1013.5
20260505053006 13 246 3.2 14.5 0.00 0.00 0.00 83 1013.6
20260505052505 13 212 3.2 12.9 0.00 0.00 0.00 83 1013.6
20260505052005 13 211 3.2 12.9 0.00 0.00 0.00 82 1013.6
20260505051505 13 245 4.8 11.3 0.00 0.00 0.00 83 1013.5
20260505051006 13 120 1.6 4.8 0.00 0.00 0.00 83 1013.6
20260505050505 13 186 1.6 14.5 0.00 0.00 0.00 83 1013.5
20260505041506 13 193 3.2 11.3 0.00 0.00 0.00 81 1013.3
20260505041005 13 220 3.2 11.3 0.00 0.00 0.00 81 1013.2
20260505040505 13 250 3.2 19.3 0.00 0.00 0.00 81 1013.0
20260505040005 13 210 3.2 19.3 0.00 0.00 0.00 81 1013.0
20260505035505 13 206 4.8 19.3 0.00 0.00 0.00 81 1012.9
20260505035005 13 234 3.2 16.1 0.00 0.00 0.00 80 1012.8
20260505034505 13 212 3.2 16.1 0.00 0.00 0.00 80 1012.6
20260505034005 13 185 3.2 16.1 0.00 0.00 0.00 80 1012.6
20260505033505 13 235 4.8 14.5 0.00 0.00 0.00 80 1012.6
20260505033005 13 238 4.8 14.5 0.00 0.00 0.00 80 1012.5
20260505032504 13 277 3.2 14.5 0.00 0.00 0.00 79 1012.5
20260505032005 13 210 3.2 12.9 0.00 0.00 0.00 79 1012.5
20260505031504 13 290 3.2 12.9 0.00 0.00 0.00 79 1012.3
20260505031005 14 204 3.2 14.5 0.00 0.00 0.00 78 1012.3
20260505030504 14 212 3.2 16.1 0.00 0.00 0.00 78 1012.2
20260505030004 14 178 3.2 16.1 0.00 0.00 0.00 77 1012.2
20260505025505 14 129 1.6 20.9 0.00 0.00 0.00 76 1012.0
20260505025005 15 203 4.8 20.9 0.00 0.00 0.00 76 1011.9
20260505024505 15 211 3.2 20.9 0.00 0.00 0.00 75 1011.9
20260505024006 15 231 4.8 19.3 0.00 0.00 0.00 75 1011.9
20260505023506 15 10 3.2 9.7 0.00 0.00 0.00 74 1011.9
20260505023006 15 234 3.2 8.0 0.00 0.00 0.00 73 1011.8
20260505022505 16 264 1.6 9.7 0.00 0.00 0.00 73 1011.8
20260505022005 16 226 3.2 14.5 0.00 0.00 0.00 72 1011.8
20260505021505 16 225 4.8 14.5 0.00 0.00 0.00 71 1011.7
20260505021005 16 212 1.6 9.7 0.00 0.00 0.00 70 1011.8
20260505020505 17 245 3.2 16.1 0.00 0.00 0.00 69 1011.7
20260505020005 17 267 3.2 16.1 0.00 0.00 0.00 69 1011.7
20260505005505 20 245 3.2 16.1 0.00 0.00 0.00 63 1011.5
20260505005005 20 228 6.4 16.1 0.00 0.00 0.00 63 1011.5
20260505004505 20 182 3.2 14.5 0.00 0.00 0.00 62 1011.7
20260505004006 20 233 3.2 14.5 0.00 0.00 0.00 62 1011.6
20260505003505 20 242 3.2 12.9 0.00 0.00 0.00 61 1011.6
20260505003005 21 226 4.8 19.3 0.00 0.00 0.00 60 1011.5
20260505002505 21 219 4.8 19.3 0.00 0.00 0.00 60 1011.6
20260505002005 21 221 3.2 16.1 0.00 0.00 0.00 61 1011.5
20260505001505 21 252 3.2 16.1 0.00 0.00 0.00 61 1011.5
20260505001005 21 212 1.6 12.9 0.00 0.00 0.00 60 1011.3
20260505000507 21 215 3.2 19.3 0.00 0.00 0.00 59 1011.4
20260505000006 22 213 3.2 19.3 0.00 0.00 0.00 58 1011.5
20260504235507 22 214 3.2 19.3 0.00 0.00 0.00 56 1011.5
20260504225007 23 228 4.8 12.9 0.00 0.00 0.00 56 1011.4
20260504224507 23 233 4.8 12.9 0.00 0.00 0.00 56 1011.3
20260504224006 24 222 3.2 19.3 0.00 0.00 0.00 56 1011.4
20260504223507 23 54 1.6 19.3 0.00 0.00 0.00 57 1011.5
20260504223006 23 244 1.6 11.3 0.00 0.00 0.00 57 1011.5
20260504222506 23 274 3.2 12.9 0.00 0.00 0.00 56 1011.6
20260504222006 23 216 3.2 12.9 0.00 0.00 0.00 57 1011.5
20260504221506 23 212 1.6 8.0 0.00 0.00 0.00 56 1011.6
20260504221007 23 231 1.6 9.7 0.00 0.00 0.00 58 1011.7
20260504220507 23 223 3.2 16.1 0.00 0.00 0.00 57 1011.6
20260504220007 23 214 4.8 16.1 0.00 0.00 0.00 55 1011.7
20260504215506 24 227 3.2 12.9 0.00 0.00 0.00 55 1011.8
20260504215007 24 220 3.2 8.0 0.00 0.00 0.00 55 1011.8
20260504214507 24 219 1.6 12.9 0.00 0.00 0.00 54 1011.9
20260504214007 24 235 3.2 12.9 0.00 0.00 0.00 56 1011.9
20260504213506 24 213 3.2 11.3 0.00 0.00 0.00 53 1011.9
20260504213006 24 193 3.2 11.3 0.00 0.00 0.00 55 1011.9
20260504212506 24 229 3.2 4.8 0.00 0.00 0.00 55 1012.1
20260504212007 24 222 1.6 9.7 0.00 0.00 0.00 54 1012.1
20260504211507 24 214 3.2 9.7 0.00 0.00 0.00 57 1012.0
20260504211006 24 215 3.2 9.7 0.00 0.00 0.00 56 1012.1
20260504210506 24 248 1.6 4.8 0.00 0.00 0.00 57 1012.2
20260504210007 23 212 1.6 4.8 0.00 0.00 0.00 56 1012.3
20260504205506 23 162 1.6 4.8 0.00 0.00 0.00 60 1012.3
20260504205007 23 305 1.6 4.8 0.00 0.00 0.00 60 1012.4
20260504204508 23 141 1.6 11.3 0.00 0.00 0.00 59 1012.3
20260504204006 23 282 4.8 11.3 0.00 0.00 0.00 58 1012.4
20260504203506 23 249 3.2 9.7 0.00 0.00 0.00 60 1012.5
20260504203007 23 256 1.6 4.8 0.00 0.00 0.00 60 1012.6
20260504202506 22 253 1.6 8.0 0.00 0.00 0.00 60 1012.7
20260504202007 22 348 3.2 8.0 0.00 0.00 0.00 61 1012.8
20260504201506 22 168 1.6 4.8 0.00 0.00 0.00 61 1012.7
20260504201007 22 260 1.6 12.9 0.00 0.00 0.00 62 1012.8
20260504200506 22 183 1.6 12.9 0.00 0.00 0.00 63 1013.0
20260504200006 22 297 1.6 12.9 0.00 0.00 0.00 64 1013.0
20260504195506 21 236 1.6 11.3 0.00 0.00 0.00 62 1013.1
20260504195007 22 254 3.2 11.3 0.00 0.00 0.00 61 1013.1
20260504194506 21 227 1.6 4.8 0.00 0.00 0.00 63 1013.0
20260504194006 21 108 1.6 4.8 0.00 0.00 0.00 64 1013.1
20260504193505 21 253 1.6 9.7 0.00 0.00 0.00 65 1013.1
20260504193006 21 218 3.2 9.7 0.00 0.00 0.00 63 1013.2
20260504192506 21 182 0.0 4.8 0.00 0.00 0.00 65 1013.2
20260504192006 21 177 1.6 4.8 0.00 0.00 0.00 66 1013.3
20260504191506 21 253 3.2 4.8 0.00 0.00 0.00 63 1013.3
20260504191007 21 148 1.6 4.8 0.00 0.00 0.00 65 1013.3
20260504190506 21 256 3.2 4.8 0.00 0.00 0.00 65 1013.4
20260504190007 20 183 1.6 8.0 0.00 0.00 0.00 65 1013.5
20260504185506 20 79 1.6 8.0 0.00 0.00 0.00 67 1013.4
20260504185006 20 213 1.6 8.0 0.00 0.00 0.00 66 1013.5
20260504184507 20 248 1.6 8.0 0.00 0.00 0.00 65 1013.5
20260504174007 17 276 1.6 12.9 0.00 0.00 0.00 71 1013.7
20260504173506 17 231 1.6 9.7 0.00 0.00 0.00 71 1013.7
20260504173006 17 287 1.6 12.9 0.00 0.00 0.00 71 1013.7
20260504172507 17 289 3.2 12.9 0.00 0.00 0.00 71 1013.8
20260504172006 17 205 1.6 12.9 0.00 0.00 0.00 73 1013.9
20260504171506 17 311 1.6 14.5 0.00 0.00 0.00 73 1013.9
20260504171006 16 224 3.2 14.5 0.00 0.00 0.00 75 1013.9
20260504170506 16 101 3.2 9.7 0.00 0.00 0.00 76 1013.9
20260504151006 13 204 3.2 9.7 0.00 0.00 0.00 84 1013.2
20260504150506 13 210 4.8 9.7 0.00 0.00 0.00 84 1013.1
20260504141006 12 214 3.2 8.0 0.00 0.00 0.00 86 1012.6
20260504140505 12 207 3.2 9.7 0.00 0.00 0.00 86 1012.5
20260504130506 11 199 0.0 3.2 0.00 0.00 0.00 88 1011.5
20260504110506 12 245 0.0 1.6 0.00 0.00 0.00 83 1010.5
20260504100506 14 304 0.0 3.2 0.00 0.00 0.00 77 1010.2